contact:dominique.lefevre@mio.osupytheas.fr, maurice.libes@osupytheas.fr, didier.mallarino@osupytheas.fr
Project:EMSO http://www.emso-fr.org/EMSO-France
Depth: 2436.0 m
Title:EMSO Ligure Ouest : Data MII capteur MICROCAT
DateTime_Computer,Latitude,Longitude,Temperature,Conductivity,Pressure,DateTime_Instrument
DateTime_Computer,Latitude,Longitude,degC,S m-1,dbar,DateTime_Instrument
2021-09-02T00:02:39Z,42.805,6.029,13.2982,4.59998,2470.357,2021-9-02T02:03:58Z
2021-09-02T00:05:42Z,42.805,6.029,13.2986,4.59998,2470.366,2021-9-02T02:07:02Z
2021-09-02T00:08:45Z,42.805,6.029,13.2986,4.59997,2470.343,2021-9-02T02:10:05Z
2021-09-02T00:11:48Z,42.805,6.029,13.2983,4.60000,2470.357,2021-9-02T02:13:08Z
2021-09-02T00:14:51Z,42.805,6.029,13.2983,4.59998,2470.38,2021-9-02T02:16:11Z
2021-09-02T00:17:54Z,42.805,6.029,13.2986,4.59998,2470.343,2021-9-02T02:19:14Z
2021-09-02T00:20:57Z,42.805,6.029,13.2986,4.59997,2470.357,2021-9-02T02:22:17Z
2021-09-02T00:24:00Z,42.805,6.029,13.2983,4.59997,2470.343,2021-9-02T02:25:20Z
2021-09-02T00:27:03Z,42.805,6.029,13.2984,4.59998,2470.38,2021-9-02T02:28:23Z
2021-09-02T00:30:07Z,42.805,6.029,13.2983,4.59998,2470.38,2021-9-02T02:31:27Z
2021-09-02T00:33:10Z,42.805,6.029,13.2985,4.59998,2470.366,2021-9-02T02:34:30Z
2021-09-02T00:36:13Z,42.805,6.029,13.2986,4.59999,2470.38,2021-9-02T02:37:33Z
2021-09-02T00:39:16Z,42.805,6.029,13.2983,4.59999,2470.366,2021-9-02T02:40:36Z
2021-09-02T00:42:19Z,42.805,6.029,13.2985,4.59998,2470.343,2021-9-02T02:43:39Z
2021-09-02T00:45:22Z,42.805,6.029,13.2983,4.59998,2470.366,2021-9-02T02:46:42Z
2021-09-02T00:48:25Z,42.805,6.029,13.2990,4.59997,2470.38,2021-9-02T02:49:45Z
2021-09-02T00:51:28Z,42.805,6.029,13.2986,4.59998,2470.357,2021-9-02T02:52:48Z
2021-09-02T00:54:32Z,42.805,6.029,13.2984,4.59999,2470.404,2021-9-02T02:55:51Z
2021-09-02T00:57:35Z,42.805,6.029,13.2990,4.59999,2470.343,2021-9-02T02:58:55Z
2021-09-02T01:00:38Z,42.805,6.029,13.2988,4.59999,2470.366,2021-9-02T03:01:58Z
2021-09-02T01:03:41Z,42.805,6.029,13.2983,4.59997,2470.38,2021-9-02T03:05:01Z
2021-09-02T01:06:44Z,42.805,6.029,13.2985,4.59997,2470.366,2021-9-02T03:08:04Z
2021-09-02T01:09:47Z,42.805,6.029,13.2982,4.59998,2470.38,2021-9-02T03:11:07Z
2021-09-02T01:12:50Z,42.805,6.029,13.2986,4.59998,2470.366,2021-9-02T03:14:10Z
2021-09-02T01:15:53Z,42.805,6.029,13.2984,4.59998,2470.343,2021-9-02T03:17:13Z
2021-09-02T01:18:56Z,42.805,6.029,13.2986,4.59997,2470.366,2021-9-02T03:20:16Z
2021-09-02T01:22:00Z,42.805,6.029,13.2986,4.59998,2470.38,2021-9-02T03:23:20Z
2021-09-02T01:25:03Z,42.805,6.029,13.2988,4.59997,2470.404,2021-9-02T03:26:23Z
2021-09-02T01:28:06Z,42.805,6.029,13.2985,4.59997,2470.366,2021-9-02T03:29:26Z
2021-09-02T01:31:09Z,42.805,6.029,13.2984,4.59996,2470.366,2021-9-02T03:32:29Z
2021-09-02T01:34:12Z,42.805,6.029,13.2986,4.59998,2470.366,2021-9-02T03:35:32Z
2021-09-02T01:37:15Z,42.805,6.029,13.2983,4.59998,2470.39,2021-9-02T03:38:35Z
2021-09-02T01:40:18Z,42.805,6.029,13.2983,4.59998,2470.38,2021-9-02T03:41:38Z
2021-09-02T01:43:21Z,42.805,6.029,13.2990,4.59997,2470.404,2021-9-02T03:44:41Z
2021-09-02T01:46:25Z,42.805,6.029,13.2985,4.59997,2470.39,2021-9-02T03:47:45Z
2021-09-02T01:49:28Z,42.805,6.029,13.2989,4.59997,2470.39,2021-9-02T03:50:48Z
2021-09-02T01:52:31Z,42.805,6.029,13.2984,4.59998,2470.413,2021-9-02T03:53:51Z
2021-09-02T01:55:34Z,42.805,6.029,13.2987,4.59997,2470.39,2021-9-02T03:56:54Z
2021-09-02T01:58:37Z,42.805,6.029,13.2986,4.59998,2470.413,2021-9-02T03:59:57Z
2021-09-02T02:01:40Z,42.805,6.029,13.2986,4.59998,2470.427,2021-9-02T04:03:00Z
2021-09-02T02:04:43Z,42.805,6.029,13.2982,4.59997,2470.39,2021-9-02T04:06:03Z
2021-09-02T02:07:46Z,42.805,6.029,13.2985,4.59998,2470.366,2021-9-02T04:09:06Z
2021-09-02T02:10:49Z,42.805,6.029,13.2984,4.59998,2470.38,2021-9-02T04:12:09Z
2021-09-02T02:13:53Z,42.805,6.029,13.2983,4.59998,2470.39,2021-9-02T04:15:13Z
2021-09-02T02:16:56Z,42.805,6.029,13.2985,4.59998,2470.399,2021-9-02T04:18:16Z
2021-09-02T02:19:59Z,42.805,6.029,13.2986,4.59998,2470.366,2021-9-02T04:21:19Z
2021-09-02T02:23:02Z,42.805,6.029,13.2986,4.59997,2470.39,2021-9-02T04:24:22Z
2021-09-02T02:26:05Z,42.805,6.029,13.2983,4.59997,2470.366,2021-9-02T04:27:25Z
2021-09-02T02:29:08Z,42.805,6.029,13.2986,4.59997,2470.404,2021-9-02T04:30:28Z
2021-09-02T02:32:11Z,42.805,6.029,13.2984,4.59998,2470.39,2021-9-02T04:33:31Z
2021-09-02T02:35:14Z,42.805,6.029,13.2987,4.59998,2470.39,2021-9-02T04:36:34Z
2021-09-02T02:38:18Z,42.805,6.029,13.2985,4.59998,2470.413,2021-9-02T04:39:38Z
2021-09-02T02:41:21Z,42.805,6.029,13.2988,4.59997,2470.413,2021-9-02T04:42:41Z
2021-09-02T02:44:24Z,42.805,6.029,13.2986,4.59999,2470.413,2021-9-02T04:45:44Z
2021-09-02T02:47:27Z,42.805,6.029,13.2984,4.59999,2470.427,2021-9-02T04:48:47Z
2021-09-02T02:50:30Z,42.805,6.029,13.2987,4.59998,2470.404,2021-9-02T04:51:50Z
2021-09-02T02:53:33Z,42.805,6.029,13.2986,4.59998,2470.39,2021-9-02T04:54:53Z
2021-09-02T02:56:36Z,42.805,6.029,13.2986,4.59999,2470.404,2021-9-02T04:57:56Z
2021-09-02T02:59:39Z,42.805,6.029,13.2986,4.59999,2470.413,2021-9-02T05:00:59Z
2021-09-02T03:02:42Z,42.805,6.029,13.2985,4.59997,2470.39,2021-9-02T05:04:02Z
2021-09-02T03:05:46Z,42.805,6.029,13.2983,4.59998,2470.427,2021-9-02T05:07:06Z
2021-09-02T03:08:49Z,42.805,6.029,13.2986,4.59998,2470.437,2021-9-02T05:10:09Z
2021-09-02T03:11:52Z,42.805,6.029,13.2986,4.59999,2470.45,2021-9-02T05:13:12Z
2021-09-02T03:14:55Z,42.805,6.029,13.2988,4.59998,2470.45,2021-9-02T05:16:15Z
2021-09-02T03:17:58Z,42.805,6.029,13.2982,4.59998,2470.427,2021-9-02T05:19:18Z
2021-09-02T03:21:01Z,42.805,6.029,13.2987,4.59998,2470.39,2021-9-02T05:22:21Z
2021-09-02T03:24:04Z,42.805,6.029,13.2987,4.59999,2470.427,2021-9-02T05:25:24Z
2021-09-02T03:27:07Z,42.805,6.029,13.2987,4.59999,2470.427,2021-9-02T05:28:27Z
2021-09-02T03:30:11Z,42.805,6.029,13.2989,4.59999,2470.413,2021-9-02T05:31:31Z
2021-09-02T03:33:14Z,42.805,6.029,13.2981,4.59998,2470.427,2021-9-02T05:34:34Z
2021-09-02T03:36:17Z,42.805,6.029,13.2984,4.59999,2470.399,2021-9-02T05:37:37Z
2021-09-02T03:39:20Z,42.805,6.029,13.2989,4.59998,2470.413,2021-9-02T05:40:40Z
2021-09-02T03:42:23Z,42.805,6.029,13.2986,4.59998,2470.404,2021-9-02T05:43:43Z
2021-09-02T03:45:26Z,42.805,6.029,13.2990,4.59998,2470.427,2021-9-02T05:46:46Z
2021-09-02T03:48:29Z,42.805,6.029,13.2984,4.59999,2470.413,2021-9-02T05:49:49Z
2021-09-02T03:51:32Z,42.805,6.029,13.2987,4.59999,2470.427,2021-9-02T05:52:52Z
2021-09-02T03:54:35Z,42.805,6.029,13.2987,4.59999,2470.413,2021-9-02T05:55:55Z
2021-09-02T03:57:39Z,42.805,6.029,13.2985,4.59998,2470.39,2021-9-02T05:58:59Z
2021-09-02T04:00:42Z,42.805,6.029,13.2984,4.59999,2470.413,2021-9-02T06:02:02Z
2021-09-02T04:03:45Z,42.805,6.029,13.2985,4.59998,2470.437,2021-9-02T06:05:05Z
2021-09-02T04:06:48Z,42.805,6.029,13.2987,4.59999,2470.404,2021-9-02T06:08:08Z
2021-09-02T04:09:51Z,42.805,6.029,13.2988,4.59999,2470.413,2021-9-02T06:11:11Z
2021-09-02T04:12:54Z,42.805,6.029,13.2989,4.59999,2470.413,2021-9-02T06:14:14Z
2021-09-02T04:15:57Z,42.805,6.029,13.2989,4.59998,2470.39,2021-9-02T06:17:17Z
2021-09-02T04:19:00Z,42.805,6.029,13.2986,4.59998,2470.437,2021-9-02T06:20:20Z
2021-09-02T04:22:04Z,42.805,6.029,13.2990,4.59998,2470.45,2021-9-02T06:23:23Z
2021-09-02T04:25:07Z,42.805,6.029,13.2985,4.59998,2470.413,2021-9-02T06:26:27Z
2021-09-02T04:28:10Z,42.805,6.029,13.2985,4.59998,2470.413,2021-9-02T06:29:30Z
2021-09-02T04:31:13Z,42.805,6.029,13.2990,4.59998,2470.413,2021-9-02T06:32:33Z
2021-09-02T04:34:16Z,42.805,6.029,13.2987,4.59999,2470.427,2021-9-02T06:35:36Z
2021-09-02T04:37:19Z,42.805,6.029,13.2983,4.59999,2470.437,2021-9-02T06:38:39Z
2021-09-02T04:40:22Z,42.805,6.029,13.2986,4.59999,2470.45,2021-9-02T06:41:42Z
2021-09-02T04:43:25Z,42.805,6.029,13.2985,4.59999,2470.413,2021-9-02T06:44:45Z
2021-09-02T04:46:28Z,42.805,6.029,13.2986,4.59998,2470.399,2021-9-02T06:47:48Z
2021-09-02T04:49:32Z,42.805,6.029,13.2986,4.59999,2470.413,2021-9-02T06:50:52Z
2021-09-02T04:52:35Z,42.805,6.029,13.2989,4.59998,2470.413,2021-9-02T06:53:55Z
2021-09-02T04:55:38Z,42.805,6.029,13.2986,4.59999,2470.413,2021-9-02T06:56:58Z
2021-09-02T04:58:41Z,42.805,6.029,13.2990,4.59998,2470.437,2021-9-02T07:00:01Z
2021-09-02T05:01:44Z,42.805,6.029,13.2986,4.59999,2470.45,2021-9-02T07:03:04Z
2021-09-02T05:04:47Z,42.805,6.029,13.2986,4.59999,2470.45,2021-9-02T07:06:07Z
2021-09-02T05:07:50Z,42.805,6.029,13.2983,4.59999,2470.46,2021-9-02T07:09:10Z
2021-09-02T05:10:53Z,42.805,6.029,13.2987,4.59999,2470.437,2021-9-02T07:12:13Z
2021-09-02T05:13:57Z,42.805,6.029,13.2985,4.59999,2470.437,2021-9-02T07:15:16Z
2021-09-02T05:17:00Z,42.805,6.029,13.2986,4.59999,2470.399,2021-9-02T07:18:20Z
2021-09-02T05:20:03Z,42.805,6.029,13.2990,4.59999,2470.437,2021-9-02T07:21:23Z
2021-09-02T05:23:06Z,42.805,6.029,13.2986,4.59999,2470.437,2021-9-02T07:24:26Z
2021-09-02T05:26:09Z,42.805,6.029,13.2989,4.59998,2470.46,2021-9-02T07:27:29Z
2021-09-02T05:29:12Z,42.805,6.029,13.2987,4.59999,2470.45,2021-9-02T07:30:32Z
2021-09-02T05:32:15Z,42.805,6.029,13.2991,4.59997,2470.45,2021-9-02T07:33:35Z
2021-09-02T05:35:18Z,42.805,6.029,13.2986,4.59998,2470.413,2021-9-02T07:36:38Z
2021-09-02T05:38:21Z,42.805,6.029,13.2987,4.59998,2470.46,2021-9-02T07:39:41Z
2021-09-02T05:41:25Z,42.805,6.029,13.2984,4.59998,2470.413,2021-9-02T07:42:45Z
2021-09-02T05:44:28Z,42.805,6.029,13.2986,4.59998,2470.437,2021-9-02T07:45:48Z
2021-09-02T05:47:31Z,42.805,6.029,13.2984,4.59999,2470.437,2021-9-02T07:48:51Z
2021-09-02T05:50:34Z,42.805,6.029,13.2987,4.60000,2470.413,2021-9-02T07:51:54Z
2021-09-02T05:53:37Z,42.805,6.029,13.2986,4.59998,2470.437,2021-9-02T07:54:57Z
2021-09-02T05:56:40Z,42.805,6.029,13.2989,4.59999,2470.399,2021-9-02T07:58:00Z
2021-09-02T05:59:43Z,42.805,6.029,13.2989,4.59998,2470.437,2021-9-02T08:01:03Z
2021-09-02T06:02:46Z,42.805,6.029,13.2986,4.59999,2470.437,2021-9-02T08:04:06Z
2021-09-02T06:05:50Z,42.805,6.029,13.2986,4.59999,2470.437,2021-9-02T08:07:09Z
2021-09-02T06:08:53Z,42.805,6.029,13.2987,4.59999,2470.437,2021-9-02T08:10:13Z
2021-09-02T06:11:56Z,42.805,6.029,13.2986,4.59999,2470.413,2021-9-02T08:13:16Z
2021-09-02T06:14:59Z,42.805,6.029,13.2984,4.59999,2470.45,2021-9-02T08:16:19Z
2021-09-02T06:18:02Z,42.805,6.029,13.2983,4.59998,2470.437,2021-9-02T08:19:22Z
2021-09-02T06:21:05Z,42.805,6.029,13.2986,4.59998,2470.437,2021-9-02T08:22:25Z
2021-09-02T06:24:08Z,42.805,6.029,13.2986,4.59999,2470.45,2021-9-02T08:25:28Z
2021-09-02T06:27:11Z,42.805,6.029,13.2986,4.59999,2470.437,2021-9-02T08:28:31Z
2021-09-02T06:30:15Z,42.805,6.029,13.2986,4.59999,2470.437,2021-9-02T08:31:34Z
2021-09-02T06:33:18Z,42.805,6.029,13.2987,4.59998,2470.427,2021-9-02T08:34:38Z
2021-09-02T06:36:21Z,42.805,6.029,13.2986,4.59999,2470.427,2021-9-02T08:37:41Z
2021-09-02T06:39:24Z,42.805,6.029,13.2986,4.59999,2470.437,2021-9-02T08:40:44Z
2021-09-02T06:42:27Z,42.805,6.029,13.2990,4.59999,2470.437,2021-9-02T08:43:47Z
2021-09-02T06:45:30Z,42.805,6.029,13.2986,4.59999,2470.39,2021-9-02T08:46:50Z
2021-09-02T06:48:33Z,42.805,6.029,13.2987,4.59999,2470.404,2021-9-02T08:49:53Z
2021-09-02T06:51:36Z,42.805,6.029,13.2987,4.59999,2470.437,2021-9-02T08:52:56Z
2021-09-02T06:54:39Z,42.805,6.029,13.2984,4.59998,2470.427,2021-9-02T08:55:59Z
2021-09-02T06:57:43Z,42.805,6.029,13.2986,4.59999,2470.39,2021-9-02T08:59:03Z
2021-09-02T07:00:46Z,42.805,6.029,13.2988,4.59998,2470.413,2021-9-02T09:02:06Z
2021-09-02T07:03:49Z,42.805,6.029,13.2986,4.59999,2470.437,2021-9-02T09:05:09Z
2021-09-02T07:06:52Z,42.805,6.029,13.2986,4.59999,2470.427,2021-9-02T09:08:12Z
2021-09-02T07:09:55Z,42.805,6.029,13.2985,4.59999,2470.39,2021-9-02T09:11:15Z
2021-09-02T07:12:58Z,42.805,6.029,13.2985,4.59999,2470.366,2021-9-02T09:14:18Z
2021-09-02T07:16:01Z,42.805,6.029,13.2986,4.59998,2470.437,2021-9-02T09:17:21Z
2021-09-02T07:19:04Z,42.805,6.029,13.2985,4.59999,2470.404,2021-9-02T09:20:24Z
2021-09-02T07:22:08Z,42.805,6.029,13.2985,4.59999,2470.39,2021-9-02T09:23:27Z
2021-09-02T07:25:11Z,42.805,6.029,13.2986,4.59998,2470.39,2021-9-02T09:26:31Z
2021-09-02T07:28:14Z,42.805,6.029,13.2984,4.59999,2470.427,2021-9-02T09:29:34Z
2021-09-02T07:31:17Z,42.805,6.029,13.2983,4.59999,2470.413,2021-9-02T09:32:37Z
2021-09-02T07:34:20Z,42.805,6.029,13.2986,4.59998,2470.437,2021-9-02T09:35:40Z
2021-09-02T07:37:23Z,42.805,6.029,13.2983,4.59997,2470.427,2021-9-02T09:38:43Z
2021-09-02T07:40:26Z,42.805,6.029,13.2985,4.59999,2470.427,2021-9-02T09:41:46Z
2021-09-02T07:43:29Z,42.805,6.029,13.2991,4.59998,2470.413,2021-9-02T09:44:49Z
2021-09-02T07:46:32Z,42.805,6.029,13.2985,4.59998,2470.39,2021-9-02T09:47:52Z
2021-09-02T07:49:36Z,42.805,6.029,13.2989,4.59998,2470.437,2021-9-02T09:50:56Z
2021-09-02T07:52:39Z,42.805,6.029,13.2990,4.59998,2470.45,2021-9-02T09:53:59Z
2021-09-02T07:55:42Z,42.805,6.029,13.2986,4.59999,2470.413,2021-9-02T09:57:02Z
2021-09-02T07:58:45Z,42.805,6.029,13.2988,4.59999,2470.427,2021-9-02T10:00:05Z
2021-09-02T08:01:48Z,42.805,6.029,13.2990,4.59998,2470.45,2021-9-02T10:03:08Z
2021-09-02T08:04:51Z,42.805,6.029,13.2984,4.59999,2470.427,2021-9-02T10:06:11Z
2021-09-02T08:07:54Z,42.805,6.029,13.2986,4.59999,2470.427,2021-9-02T10:09:14Z
2021-09-02T08:10:57Z,42.805,6.029,13.2989,4.59998,2470.39,2021-9-02T10:12:17Z
2021-09-02T08:14:01Z,42.805,6.029,13.2983,4.59998,2470.427,2021-9-02T10:15:20Z
2021-09-02T08:17:04Z,42.805,6.029,13.2987,4.59998,2470.39,2021-9-02T10:18:24Z
2021-09-02T08:20:07Z,42.805,6.029,13.2989,4.59998,2470.413,2021-9-02T10:21:27Z
2021-09-02T08:23:10Z,42.805,6.029,13.2989,4.59998,2470.404,2021-9-02T10:24:30Z
2021-09-02T08:26:13Z,42.805,6.029,13.2987,4.59998,2470.404,2021-9-02T10:27:33Z
2021-09-02T08:29:16Z,42.805,6.029,13.2986,4.59999,2470.413,2021-9-02T10:30:36Z
2021-09-02T08:32:19Z,42.805,6.029,13.2986,4.59998,2470.413,2021-9-02T10:33:39Z
2021-09-02T08:35:22Z,42.805,6.029,13.2987,4.59998,2470.39,2021-9-02T10:36:42Z
2021-09-02T08:38:26Z,42.805,6.029,13.2987,4.59998,2470.39,2021-9-02T10:39:45Z
2021-09-02T08:41:29Z,42.805,6.029,13.2986,4.59998,2470.413,2021-9-02T10:42:49Z
2021-09-02T08:44:32Z,42.805,6.029,13.2984,4.59999,2470.39,2021-9-02T10:45:52Z
2021-09-02T08:47:35Z,42.805,6.029,13.2987,4.59999,2470.39,2021-9-02T10:48:55Z
2021-09-02T08:50:38Z,42.805,6.029,13.2985,4.59998,2470.413,2021-9-02T10:51:58Z
2021-09-02T08:53:41Z,42.805,6.029,13.2986,4.59999,2470.413,2021-9-02T10:55:01Z
2021-09-02T08:56:44Z,42.805,6.029,13.2990,4.59999,2470.437,2021-9-02T10:58:04Z
2021-09-02T08:59:47Z,42.805,6.029,13.2986,4.59998,2470.39,2021-9-02T11:01:07Z
2021-09-02T09:02:50Z,42.805,6.029,13.2988,4.59998,2470.404,2021-9-02T11:04:10Z
2021-09-02T09:05:54Z,42.805,6.029,13.2987,4.59999,2470.404,2021-9-02T11:07:14Z
2021-09-02T09:08:57Z,42.805,6.029,13.2984,4.59998,2470.38,2021-9-02T11:10:17Z
2021-09-02T09:12:00Z,42.805,6.029,13.2986,4.59999,2470.39,2021-9-02T11:13:20Z
2021-09-02T09:15:03Z,42.805,6.029,13.2986,4.59998,2470.437,2021-9-02T11:16:23Z
2021-09-02T09:18:06Z,42.805,6.029,13.2985,4.59998,2470.39,2021-9-02T11:19:26Z
2021-09-02T09:21:09Z,42.805,6.029,13.2986,4.59998,2470.39,2021-9-02T11:22:29Z
2021-09-02T09:24:12Z,42.805,6.029,13.2986,4.59998,2470.413,2021-9-02T11:25:32Z
2021-09-02T09:27:15Z,42.805,6.029,13.2987,4.59998,2470.427,2021-9-02T11:28:35Z
2021-09-02T09:30:19Z,42.805,6.029,13.2985,4.59998,2470.404,2021-9-02T11:31:39Z
2021-09-02T09:33:22Z,42.805,6.029,13.2986,4.59997,2470.45,2021-9-02T11:34:42Z
2021-09-02T09:36:25Z,42.805,6.029,13.2985,4.59999,2470.413,2021-9-02T11:37:45Z
2021-09-02T09:39:28Z,42.805,6.029,13.2987,4.60000,2470.413,2021-9-02T11:40:48Z
2021-09-02T09:42:31Z,42.805,6.029,13.2989,4.59998,2470.404,2021-9-02T11:43:51Z
2021-09-02T09:45:34Z,42.805,6.029,13.2987,4.59997,2470.45,2021-9-02T11:46:54Z
2021-09-02T09:48:37Z,42.805,6.029,13.2986,4.59998,2470.413,2021-9-02T11:49:57Z
2021-09-02T09:51:40Z,42.805,6.029,13.2986,4.59997,2470.38,2021-9-02T11:53:00Z
2021-09-02T09:54:44Z,42.805,6.029,13.2986,4.59997,2470.413,2021-9-02T11:56:04Z
2021-09-02T09:57:47Z,42.805,6.029,13.2985,4.59997,2470.39,2021-9-02T11:59:07Z
2021-09-02T10:00:50Z,42.805,6.029,13.2984,4.59997,2470.39,2021-9-02T12:02:10Z
2021-09-02T10:03:53Z,42.805,6.029,13.2984,4.59999,2470.437,2021-9-02T12:05:13Z
2021-09-02T10:06:56Z,42.805,6.029,13.2985,4.59997,2470.413,2021-9-02T12:08:16Z
2021-09-02T10:09:59Z,42.805,6.029,13.2986,4.59999,2470.413,2021-9-02T12:11:19Z
2021-09-02T10:13:02Z,42.805,6.029,13.2986,4.59999,2470.39,2021-9-02T12:14:22Z
2021-09-02T10:16:05Z,42.805,6.029,13.2990,4.59999,2470.404,2021-9-02T12:17:25Z
2021-09-02T10:19:09Z,42.805,6.029,13.2987,4.59998,2470.423,2021-9-02T12:20:29Z
2021-09-02T10:22:12Z,42.805,6.029,13.2986,4.59999,2470.413,2021-9-02T12:23:32Z
2021-09-02T10:25:15Z,42.805,6.029,13.2985,4.59999,2470.39,2021-9-02T12:26:35Z
2021-09-02T10:28:18Z,42.805,6.029,13.2987,4.59998,2470.39,2021-9-02T12:29:38Z
2021-09-02T10:31:21Z,42.805,6.029,13.2990,4.59998,2470.413,2021-9-02T12:32:41Z
2021-09-02T10:34:24Z,42.805,6.029,13.2986,4.59997,2470.427,2021-9-02T12:35:44Z
2021-09-02T10:37:27Z,42.805,6.029,13.2988,4.59997,2470.437,2021-9-02T12:38:47Z
2021-09-02T10:40:30Z,42.805,6.029,13.2985,4.59999,2470.413,2021-9-02T12:41:50Z
2021-09-02T10:43:34Z,42.805,6.029,13.2985,4.59999,2470.413,2021-9-02T12:44:54Z
2021-09-02T10:46:37Z,42.805,6.029,13.2985,4.59998,2470.45,2021-9-02T12:47:57Z
2021-09-02T10:49:40Z,42.805,6.029,13.2982,4.59998,2470.45,2021-9-02T12:51:00Z
2021-09-02T10:52:43Z,42.805,6.029,13.2986,4.59997,2470.413,2021-9-02T12:54:03Z
2021-09-02T10:55:46Z,42.805,6.029,13.2987,4.59997,2470.404,2021-9-02T12:57:06Z
2021-09-02T10:58:49Z,42.805,6.029,13.2990,4.59997,2470.413,2021-9-02T13:00:09Z
2021-09-02T11:01:52Z,42.805,6.029,13.2979,4.59997,2470.404,2021-9-02T13:03:12Z
2021-09-02T11:04:55Z,42.805,6.029,13.2986,4.59998,2470.39,2021-9-02T13:06:15Z
2021-09-02T11:07:59Z,42.805,6.029,13.2986,4.59997,2470.427,2021-9-02T13:09:18Z
2021-09-02T11:11:02Z,42.805,6.029,13.2986,4.59998,2470.39,2021-9-02T13:12:22Z
2021-09-02T11:14:05Z,42.805,6.029,13.2988,4.59998,2470.437,2021-9-02T13:15:25Z
2021-09-02T11:17:08Z,42.805,6.029,13.2988,4.59998,2470.45,2021-9-02T13:18:28Z
2021-09-02T11:20:11Z,42.805,6.029,13.2986,4.59997,2470.413,2021-9-02T13:21:31Z
2021-09-02T11:23:14Z,42.805,6.029,13.2984,4.59997,2470.413,2021-9-02T13:24:34Z
2021-09-02T11:26:17Z,42.805,6.029,13.2986,4.59999,2470.427,2021-9-02T13:27:37Z
2021-09-02T11:29:20Z,42.805,6.029,13.2985,4.59998,2470.427,2021-9-02T13:30:40Z
2021-09-02T11:32:23Z,42.805,6.029,13.2983,4.59998,2470.413,2021-9-02T13:33:43Z
2021-09-02T11:35:27Z,42.805,6.029,13.2984,4.59999,2470.437,2021-9-02T13:36:47Z
2021-09-02T11:38:30Z,42.805,6.029,13.2983,4.59998,2470.413,2021-9-02T13:39:50Z
2021-09-02T11:41:33Z,42.805,6.029,13.2983,4.59998,2470.39,2021-9-02T13:42:53Z
2021-09-02T11:44:36Z,42.805,6.029,13.2986,4.59998,2470.413,2021-9-02T13:45:56Z
2021-09-02T11:47:39Z,42.805,6.029,13.2984,4.59997,2470.45,2021-9-02T13:48:59Z
2021-09-02T11:50:42Z,42.805,6.029,13.2988,4.59998,2470.483,2021-9-02T13:52:02Z
2021-09-02T11:53:45Z,42.805,6.029,13.2986,4.59998,2470.437,2021-9-02T13:55:05Z
2021-09-02T11:56:48Z,42.805,6.029,13.2986,4.59998,2470.427,2021-9-02T13:58:08Z
2021-09-02T11:59:52Z,42.805,6.029,13.2987,4.59998,2470.45,2021-9-02T14:01:12Z
2021-09-02T12:02:55Z,42.805,6.029,13.2987,4.59998,2470.46,2021-9-02T14:04:15Z
2021-09-02T12:05:58Z,42.805,6.029,13.2983,4.59997,2470.39,2021-9-02T14:07:18Z
2021-09-02T12:09:01Z,42.805,6.029,13.2987,4.59998,2470.437,2021-9-02T14:10:21Z
2021-09-02T12:12:04Z,42.805,6.029,13.2990,4.59997,2470.427,2021-9-02T14:13:24Z
2021-09-02T12:15:07Z,42.805,6.029,13.2983,4.59998,2470.413,2021-9-02T14:16:27Z
2021-09-02T12:18:10Z,42.805,6.029,13.2991,4.59997,2470.437,2021-9-02T14:19:30Z
2021-09-02T12:21:13Z,42.805,6.029,13.2986,4.59998,2470.427,2021-9-02T14:22:33Z
2021-09-02T12:24:17Z,42.805,6.029,13.2987,4.59998,2470.45,2021-9-02T14:25:37Z
2021-09-02T12:27:20Z,42.805,6.029,13.2986,4.59997,2470.437,2021-9-02T14:28:40Z
2021-09-02T12:30:23Z,42.805,6.029,13.2986,4.59998,2470.437,2021-9-02T14:31:43Z
2021-09-02T12:33:26Z,42.805,6.029,13.2986,4.59998,2470.497,2021-9-02T14:34:46Z
2021-09-02T12:36:29Z,42.805,6.029,13.2984,4.59998,2470.46,2021-9-02T14:37:49Z
2021-09-02T12:39:32Z,42.805,6.029,13.2985,4.59998,2470.497,2021-9-02T14:40:52Z
2021-09-02T12:42:35Z,42.805,6.029,13.2987,4.59998,2470.483,2021-9-02T14:43:55Z
2021-09-02T12:45:38Z,42.805,6.029,13.2986,4.59999,2470.46,2021-9-02T14:46:58Z
2021-09-02T12:48:42Z,42.805,6.029,13.2985,4.59998,2470.45,2021-9-02T14:50:02Z
2021-09-02T12:51:45Z,42.805,6.029,13.2989,4.59999,2470.437,2021-9-02T14:53:05Z
2021-09-02T12:54:48Z,42.805,6.029,13.2988,4.59998,2470.474,2021-9-02T14:56:08Z
2021-09-02T12:57:51Z,42.805,6.029,13.2984,4.59998,2470.46,2021-9-02T14:59:11Z
2021-09-02T13:00:54Z,42.805,6.029,13.2987,4.59997,2470.474,2021-9-02T15:02:14Z
2021-09-02T13:03:57Z,42.805,6.029,13.2986,4.59999,2470.474,2021-9-02T15:05:17Z
2021-09-02T13:07:00Z,42.805,6.029,13.2984,4.59998,2470.437,2021-9-02T15:08:20Z
2021-09-02T13:10:03Z,42.805,6.029,13.2986,4.59999,2470.483,2021-9-02T15:11:23Z
2021-09-02T13:13:07Z,42.805,6.029,13.2987,4.59998,2470.483,2021-9-02T15:14:26Z
2021-09-02T13:16:10Z,42.805,6.029,13.2984,4.59999,2470.46,2021-9-02T15:17:30Z
2021-09-02T13:19:13Z,42.805,6.029,13.2986,4.59998,2470.46,2021-9-02T15:20:33Z
2021-09-02T13:22:16Z,42.805,6.029,13.2986,4.59999,2470.46,2021-9-02T15:23:36Z
2021-09-02T13:25:19Z,42.805,6.029,13.2987,4.59998,2470.483,2021-9-02T15:26:39Z
2021-09-02T13:28:22Z,42.805,6.029,13.2986,4.59999,2470.47,2021-9-02T15:29:42Z
2021-09-02T13:31:25Z,42.805,6.029,13.2986,4.59999,2470.507,2021-9-02T15:32:45Z
2021-09-02T13:34:28Z,42.805,6.029,13.2986,4.59998,2470.52,2021-9-02T15:35:48Z
2021-09-02T13:37:32Z,42.805,6.029,13.2986,4.59998,2470.483,2021-9-02T15:38:52Z
2021-09-02T13:40:35Z,42.805,6.029,13.2985,4.59999,2470.507,2021-9-02T15:41:55Z
2021-09-02T13:43:38Z,42.805,6.029,13.2986,4.59997,2470.483,2021-9-02T15:44:58Z
2021-09-02T13:46:41Z,42.805,6.029,13.2987,4.59999,2470.52,2021-9-02T15:48:01Z
2021-09-02T13:49:44Z,42.805,6.029,13.2986,4.59999,2470.507,2021-9-02T15:51:04Z
2021-09-02T13:52:47Z,42.805,6.029,13.2990,4.59999,2470.52,2021-9-02T15:54:07Z
2021-09-02T13:55:50Z,42.805,6.029,13.2987,4.59999,2470.483,2021-9-02T15:57:10Z
2021-09-02T13:58:53Z,42.805,6.029,13.2985,4.59998,2470.52,2021-9-02T16:00:13Z
2021-09-02T14:01:56Z,42.805,6.029,13.2990,4.59999,2470.52,2021-9-02T16:03:16Z
2021-09-02T14:05:00Z,42.805,6.029,13.2988,4.59999,2470.53,2021-9-02T16:06:20Z
2021-09-02T14:08:03Z,42.805,6.029,13.2989,4.59999,2470.53,2021-9-02T16:09:23Z
2021-09-02T14:11:06Z,42.805,6.029,13.2987,4.59999,2470.507,2021-9-02T16:12:26Z
2021-09-02T14:14:09Z,42.805,6.029,13.2987,4.59999,2470.53,2021-9-02T16:15:29Z
2021-09-02T14:17:12Z,42.805,6.029,13.2986,4.59999,2470.53,2021-9-02T16:18:32Z
2021-09-02T14:20:15Z,42.805,6.029,13.2987,4.59998,2470.52,2021-9-02T16:21:35Z
2021-09-02T14:23:18Z,42.805,6.029,13.2986,4.59999,2470.53,2021-9-02T16:24:38Z
2021-09-02T14:26:21Z,42.805,6.029,13.2989,4.59999,2470.483,2021-9-02T16:27:41Z
2021-09-02T14:29:25Z,42.805,6.029,13.2986,4.59999,2470.53,2021-9-02T16:30:45Z
2021-09-02T14:32:28Z,42.805,6.029,13.2987,4.59999,2470.507,2021-9-02T16:33:48Z
2021-09-02T14:35:31Z,42.805,6.029,13.2985,4.59998,2470.544,2021-9-02T16:36:51Z
2021-09-02T14:38:34Z,42.805,6.029,13.2989,4.60001,2470.53,2021-9-02T16:39:54Z
2021-09-02T14:41:37Z,42.805,6.029,13.2990,4.60001,2470.507,2021-9-02T16:42:57Z
2021-09-02T14:44:40Z,42.805,6.029,13.2982,4.59999,2470.516,2021-9-02T16:46:00Z
2021-09-02T14:47:43Z,42.805,6.029,13.2984,4.59999,2470.544,2021-9-02T16:49:03Z
2021-09-02T14:50:46Z,42.805,6.029,13.2987,4.59999,2470.53,2021-9-02T16:52:06Z
2021-09-02T14:53:50Z,42.805,6.029,13.2984,4.59998,2470.553,2021-9-02T16:55:10Z
2021-09-02T14:56:53Z,42.805,6.029,13.2986,4.59998,2470.553,2021-9-02T16:58:13Z
2021-09-02T14:59:56Z,42.805,6.029,13.2987,4.59998,2470.53,2021-9-02T17:01:16Z
2021-09-02T15:02:59Z,42.805,6.029,13.2986,4.59999,2470.544,2021-9-02T17:04:19Z
2021-09-02T15:06:02Z,42.805,6.029,13.2986,4.59999,2470.53,2021-9-02T17:07:22Z
2021-09-02T15:09:05Z,42.805,6.029,13.2986,4.59998,2470.553,2021-9-02T17:10:25Z
2021-09-02T15:12:08Z,42.805,6.029,13.2986,4.59999,2470.53,2021-9-02T17:13:28Z
2021-09-02T15:15:11Z,42.805,6.029,13.2983,4.59999,2470.553,2021-9-02T17:16:31Z